Location: Unspecified
(0.0000°N, 0.0000°E)
Time: 07:15:02
(UTC+00:00)

Kosmos-648 - Pass Details

Date: 07 July 2022
Orbit: 1437 x 1489 km, 74.0° (Epoch: 16 August)

Event Time Altitude Azimuth Distance (km) Brightness Sun altitude
Rises 20:09:18 0° 345° (NNW) 4,601 ? -28.5°
Reaches altitude 10° 20:12:12 10° 344° (NNW) 3,623 ? -29.1°
Maximum altitude 20:21:01 78° 259° (WSW) 1,518 ? -31.1°
Enters shadow 20:24:23 43° 181° (S) 1,974 ? -31.9°
